GW5434 Weather Reports


Display with metric or nautical units.
time (UTC)temp
F
wind
direction
speed
MPH
gust
MPH
rain 1hr
in
rain 24hr
in
rain mn
in
humidity
%
barometer
mb
20260905204519 92 41 3.0 8.0 0.00 0.01 0.00 63 1012.5
20260905203021 92 155 2.0 6.0 0.00 0.01 0.00 65 1012.7
20260905201530 92 110 4.0 12.0 0.00 0.01 0.00 64 1013.0
20260905200039 92 122 1.0 4.0 0.00 0.01 0.00 66 1012.8
20260905194515 92 104 2.0 5.0 0.00 0.01 0.00 64 1012.9
20260905193022 91 30 1.0 10.0 0.00 0.01 0.00 66 1013.0
20260905191532 91 125 2.0 5.0 0.00 0.01 0.00 66 1013.1
20260905190021 91 89 3.0 7.0 0.00 0.01 0.00 64 1013.4
20260905184511 92 118 1.0 8.0 0.00 0.01 0.00 62 1013.9
20260905183016 91 53 2.0 6.0 0.00 0.01 0.00 67 1014.1
20260905181525 90 333 1.0 3.0 0.00 0.01 0.00 69 1014.1
20260905180026 90 151 0.0 4.0 0.00 0.01 0.00 68 1014.3
20260905174507 89 341 2.0 6.0 0.00 0.01 0.00 70 1014.6
20260905173010 87 328 3.0 6.0 0.00 0.04 0.00 73 1014.8
20260905171517 87 4 3.0 8.0 0.00 0.07 0.00 73 1015.0
20260905170023 88 357 2.0 7.0 0.00 0.07 0.00 73 1015.0
20260905164534 87 21 1.0 10.0 0.00 0.07 0.00 76 1015.0
20260905163031 86 330 3.0 9.0 0.00 0.07 0.00 75 1015.2
20260905161531 85 130 0.0 5.0 0.00 0.07 0.00 79 1015.5
20260905160019 83 5 2.0 5.0 0.00 0.25 0.00 81 1015.6
20260905154523 83 289 1.0 3.0 0.00 0.33 0.00 81 1015.7
20260905153045 83 79 0.0 1.0 0.00 0.35 0.00 83 1015.6
20260905151539 81 70 0.0 3.0 0.00 0.35 0.00 86 1015.5
20260905150032 80 42 0.0 3.0 0.00 0.35 0.00 87 1015.5
20260905144523 79 334 1.0 5.0 0.00 0.35 0.00 87 1015.5
20260905143030 78 276 0.0 0.0 0.00 0.35 0.00 91 1015.4
20260905141530 76 324 0.0 2.0 0.00 0.35 0.00 94 1015.5
20260905140032 76 24 0.0 2.0 0.00 0.35 0.00 95 1015.5
20260905134522 76 40 0.0 2.0 0.00 0.35 0.00 95 1015.4
20260905133030 76 346 0.0 2.0 0.00 0.35 0.00 96 1015.3
20260905131536 75 344 0.0 2.0 0.00 0.35 0.00 96 1015.3
20260905130039 75 110 0.0 0.0 0.00 0.35 0.00 96 1015.0
20260905124514 75 110 0.0 1.0 0.00 0.35 0.00 96 1015.0
20260905123017 75 82 0.0 2.0 0.00 0.35 0.00 96 1015.0
20260905121524 75 44 0.0 2.0 0.00 0.35 0.00 96 1014.8
20260905120027 75 345 0.0 2.0 0.00 0.35 0.00 96 1014.5
20260905114532 75 184 0.0 0.0 0.00 0.35 0.00 96 1014.4
20260905113017 75 185 0.0 0.0 0.00 0.35 0.00 96 1014.4
20260905111540 75 185 0.0 1.0 0.00 0.35 0.00 96 1014.4
20260905110027 75 184 0.0 0.0 0.00 0.35 0.00 96 1014.4
20260905104529 75 184 0.0 0.0 0.00 0.35 0.00 96 1014.4
20260905103031 75 200 0.0 0.0 0.00 0.35 0.00 96 1014.4
20260905101516 75 200 0.0 0.0 0.00 0.35 0.00 96 1014.5
20260905100025 75 186 0.0 1.0 0.00 0.35 0.00 96 1014.6
20260905094526 75 184 0.0 0.0 0.00 0.35 0.00 96 1014.5
20260905093030 75 184 0.0 0.0 0.00 0.35 0.00 95 1014.4
20260905091534 75 184 0.0 0.0 0.00 0.35 0.00 96 1014.2
20260905090019 75 184 0.0 0.0 0.00 0.35 0.00 95 1014.3
20260905084527 75 227 0.0 0.0 0.00 0.35 0.00 95 1014.2
20260905083028 75 227 0.0 0.0 0.00 0.35 0.00 96 1014.1
20260905081534 75 227 0.0 0.0 0.00 0.35 0.00 95 1014.0
20260905080031 75 227 0.0 1.0 0.00 0.35 0.00 95 1013.9
20260905074521 75 185 0.0 1.0 0.00 0.35 0.00 95 1013.8
20260905073034 75 185 0.0 0.0 0.00 0.35 0.00 95 1013.9
20260905071541 75 216 0.0 1.0 0.00 0.35 0.00 95 1014.0
20260905070033 75 139 0.0 1.0 0.00 0.35 0.00 95 1014.0
20260905064536 75 106 0.0 0.0 0.00 0.35 0.00 95 1014.0
20260905063023 75 106 0.0 0.0 0.00 0.35 0.00 95 1014.0
20260905061531 75 106 0.0 0.0 0.00 0.35 0.00 95 1014.0
20260905060036 75 106 0.0 0.0 0.00 0.35 0.00 94 1013.9
20260905054542 75 106 0.0 0.0 0.00 0.35 0.00 94 1014.0
20260905053033 75 107 0.0 0.0 0.00 0.35 0.00 94 1013.8
20260905051527 75 106 0.0 0.0 0.00 0.35 0.00 94 1013.9
20260905050031 75 106 0.0 1.0 0.00 0.35 0.00 94 1014.0
20260905044530 76 106 0.0 0.0 0.00 0.35 0.35 94 1014.1
20260905043031 76 106 0.0 0.0 0.00 0.35 0.35 94 1014.2
20260905041533 76 73 0.0 0.0 0.00 0.35 0.35 94 1014.4
20260905040029 76 122 0.0 0.0 0.00 0.35 0.35 94 1014.5
20260905034509 77 122 0.0 0.0 0.00 0.35 0.35 94 1014.7
20260905033013 77 122 0.0 0.0 0.00 0.35 0.35 94 1014.9
20260905031520 77 221 0.0 2.0 0.00 0.35 0.35 94 1014.7
20260905030024 77 215 0.0 0.0 0.00 0.35 0.35 94 1015.1
20260905024530 77 110 0.0 0.0 0.00 0.35 0.35 94 1015.2
20260905023018 77 110 0.0 0.0 0.00 0.35 0.35 94 1014.9
20260905021516 77 110 0.0 0.0 0.00 0.35 0.35 93 1014.9
20260905020024 77 110 0.0 0.0 0.00 0.35 0.35 93 1014.6
20260905014526 78 110 0.0 0.0 0.00 0.35 0.35 93 1014.6
20260905013031 78 110 0.0 0.0 0.00 0.35 0.35 93 1014.6
20260905011510 78 109 0.0 0.0 0.00 0.35 0.35 93 1014.5
20260905010018 78 109 0.0 0.0 0.00 0.35 0.35 93 1014.4
20260905004532 79 109 0.0 0.0 0.00 0.35 0.35 92 1014.3
20260905003004 79 109 0.0 0.0 0.00 0.35 0.35 92 1014.4
20260905001508 80 109 0.0 0.0 0.00 0.35 0.35 91 1014.5
20260905000014 80 109 0.0 0.0 0.00 0.35 0.35 91 1014.7
20260904234520 80 150 0.0 0.0 0.00 0.35 0.35 90 1014.9
20260904233025 80 212 0.0 0.0 0.00 0.35 0.35 90 1014.9
20260904231509 80 243 0.0 0.0 0.00 0.35 0.35 90 1014.8
20260904230012 80 241 0.0 1.0 0.00 0.35 0.35 90 1014.8
20260904224512 80 266 0.0 0.0 0.01 0.35 0.35 89 1014.5
20260904223029 80 338 0.0 1.0 0.01 0.35 0.35 89 1014.3
20260904221529 80 53 0.0 1.0 0.01 0.35 0.35 89 1014.2
20260904220008 80 124 0.0 2.0 0.01 0.35 0.35 89 1014.1
20260904214512 81 134 0.0 2.0 0.00 0.34 0.34 88 1013.9
20260904213026 81 136 1.0 2.0 0.00 0.34 0.34 87 1013.7
20260904211526 82 95 0.0 2.0 0.00 0.34 0.34 84 1013.9
20260904210036 83 115 1.0 6.0 0.00 0.34 0.34 83 1013.8